Time,TemperatureF,DewpointF,PressureIn,WindDirection,WindDirectionDegrees,WindSpeedMPH,WindSpeedGustMPH,Humidity,HourlyPrecipIn,Conditions,Clouds,dailyrainin,SolarRadiationWatts/m^2,SoftwareType,DateUTC
2013-07-19 00:00:00,78.6,75.1,30.08,WSW,256,0.0,0.0,89,0.00,,,0.00,0,Wunderground v.1.15,2013-07-19 04:00:00,
2013-07-19 00:02:00,78.6,75.1,30.08,WSW,256,0.0,0.0,89,0.00,,,0.00,0,Wunderground v.1.15,2013-07-19 04:02:00,
2013-07-19 00:04:00,78.6,75.1,30.08,WSW,256,0.0,0.0,89,0.00,,,0.00,0,Wunderground v.1.15,2013-07-19 04:04:00,
2013-07-19 00:06:00,78.5,75.0,30.08,WSW,256,0.0,0.0,89,0.00,,,0.00,0,Wunderground v.1.15,2013-07-19 04:06:00,
2013-07-19 00:12:00,78.5,75.3,30.08,WSW,256,0.0,2.0,90,0.00,,,0.00,0,Wunderground v.1.15,2013-07-19 04:12:00,
2013-07-19 00:18:00,78.5,75.3,30.08,South,174,1.0,2.0,90,0.00,,,0.00,0,Wunderground v.1.15,2013-07-19 04:18:00,
2013-07-19 00:20:00,78.5,75.3,30.08,South,174,1.0,3.0,90,0.00,,,0.00,0,Wunderground v.1.15,2013-07-19 04:20:00,
2013-07-19 00:26:00,78.5,75.3,30.08,WSW,256,2.0,5.0,90,0.00,,,0.00,0,Wunderground v.1.15,2013-07-19 04:26:00,
2013-07-19 00:32:00,78.5,75.7,30.08,WSW,246,3.0,3.0,91,0.00,,,0.00,0,Wunderground v.1.15,2013-07-19 04:32:00,
2013-07-19 00:38:00,78.5,75.7,30.08,West,268,2.0,3.0,91,0.00,,,0.00,0,Wunderground v.1.15,2013-07-19 04:38:00,
2013-07-19 00:44:00,78.5,75.7,30.08,SSW,213,2.0,4.0,91,0.00,,,0.00,0,Wunderground v.1.15,2013-07-19 04:44:00,
2013-07-19 00:50:00,78.5,75.7,30.08,SSW,213,1.0,4.0,91,0.00,,,0.00,0,Wunderground v.1.15,2013-07-19 04:50:00,
2013-07-19 00:56:00,78.5,75.7,30.08,WSW,246,2.0,5.0,91,0.00,,,0.00,0,Wunderground v.1.15,2013-07-19 04:56:00,
2013-07-19 01:02:00,78.5,75.7,30.08,WSW,237,2.0,2.0,91,0.00,,,0.00,0,Wunderground v.1.15,2013-07-19 05:02:00,
2013-07-19 01:08:00,78.5,75.7,30.08,SSW,209,2.0,5.0,91,0.00,,,0.00,0,Wunderground v.1.15,2013-07-19 05:08:00,
2013-07-19 01:14:00,78.5,75.7,30.08,WSW,246,2.0,2.0,91,0.00,,,0.00,0,Wunderground v.1.15,2013-07-19 05:14:00,
2013-07-19 01:20:00,78.5,75.7,30.08,WSW,246,2.0,2.0,91,0.00,,,0.00,0,Wunderground v.1.15,2013-07-19 05:20:00,
2013-07-19 01:26:00,78.5,75.7,30.08,WSW,254,2.0,2.0,91,0.00,,,0.00,0,Wunderground v.1.15,2013-07-19 05:26:00,
2013-07-19 01:32:00,78.5,75.7,30.08,SSE,162,2.0,2.0,91,0.00,,,0.00,0,Wunderground v.1.15,2013-07-19 05:32:00,
2013-07-19 01:38:00,78.5,75.7,30.08,WSW,244,2.0,2.0,91,0.00,,,0.00,0,Wunderground v.1.15,2013-07-19 05:38:00,
2013-07-19 01:44:00,78.5,75.7,30.08,SW,220,2.0,3.0,91,0.00,,,0.00,0,Wunderground v.1.15,2013-07-19 05:44:00,
2013-07-19 01:50:00,78.3,75.5,30.07,SSW,202,1.0,2.0,91,0.00,,,0.00,0,Wunderground v.1.15,2013-07-19 05:50:00,
2013-07-19 01:56:00,78.3,75.5,30.07,SSW,213,2.0,5.0,91,0.00,,,0.00,0,Wunderground v.1.15,2013-07-19 05:56:00,
2013-07-19 02:02:00,78.3,75.5,30.07,SSW,213,2.0,2.0,91,0.00,,,0.00,0,Wunderground v.1.15,2013-07-19 06:02:00,
2013-07-19 02:08:00,78.1,75.3,30.07,SSW,213,1.0,2.0,91,0.00,,,0.00,0,Wunderground v.1.15,2013-07-19 06:08:00,
2013-07-19 02:14:00,78.1,75.6,30.07,WSW,246,1.0,1.0,92,0.00,,,0.00,0,Wunderground v.1.15,2013-07-19 06:14:00,
2013-07-19 02:20:00,78.1,75.6,30.07,WSW,246,1.0,2.0,92,0.00,,,0.00,0,Wunderground v.1.15,2013-07-19 06:20:00,
2013-07-19 02:26:00,78.1,75.6,30.07,WSW,243,1.0,2.0,92,0.00,,,0.00,0,Wunderground v.1.15,2013-07-19 06:26:00,
2013-07-19 02:32:00,78.1,75.6,30.07,WSW,243,1.0,2.0,92,0.00,,,0.00,0,Wunderground v.1.15,2013-07-19 06:32:00,
2013-07-19 02:38:00,77.9,75.4,30.07,WSW,243,1.0,2.0,92,0.00,,,0.00,0,Wunderground v.1.15,2013-07-19 06:38:00,
2013-07-19 02:44:00,77.9,75.4,30.07,SW,227,1.0,2.0,92,0.00,,,0.00,0,Wunderground v.1.15,2013-07-19 06:44:00,
2013-07-19 02:50:00,77.7,75.5,30.06,SW,216,2.0,5.0,93,0.00,,,0.00,0,Wunderground v.1.15,2013-07-19 06:50:00,
2013-07-19 02:56:00,77.7,75.5,30.06,SSW,209,2.0,2.0,93,0.00,,,0.00,0,Wunderground v.1.15,2013-07-19 06:56:00,
2013-07-19 03:02:00,77.6,75.4,30.06,WSW,237,2.0,5.0,93,0.00,,,0.00,0,Wunderground v.1.15,2013-07-19 07:02:00,
2013-07-19 03:08:00,77.6,75.4,30.06,SW,224,2.0,5.0,93,0.00,,,0.00,0,Wunderground v.1.15,2013-07-19 07:08:00,
2013-07-19 03:14:00,77.6,75.4,30.06,WSW,251,2.0,5.0,93,0.00,,,0.00,0,Wunderground v.1.15,2013-07-19 07:14:00,
2013-07-19 03:20:00,77.4,75.2,30.05,SW,236,2.0,2.0,93,0.00,,,0.00,0,Wunderground v.1.15,2013-07-19 07:20:00,
2013-07-19 03:26:00,77.4,75.2,30.05,SW,236,2.0,2.0,93,0.00,,,0.00,0,Wunderground v.1.15,2013-07-19 07:26:00,
2013-07-19 03:32:00,77.4,75.5,30.05,SW,236,1.0,1.0,94,0.00,,,0.00,0,Wunderground v.1.15,2013-07-19 07:32:00,
2013-07-19 03:38:00,77.2,75.3,30.05,WSW,257,2.0,3.0,94,0.00,,,0.00,0,Wunderground v.1.15,2013-07-19 07:38:00,
2013-07-19 03:44:00,77.2,75.3,30.05,South,189,2.0,2.0,94,0.00,,,0.00,0,Wunderground v.1.15,2013-07-19 07:44:00,
2013-07-19 03:50:00,77.2,75.3,30.05,SSW,200,1.0,1.0,94,0.00,,,0.00,0,Wunderground v.1.15,2013-07-19 07:50:00,
2013-07-19 03:56:00,77.2,75.3,30.05,SW,223,2.0,5.0,94,0.00,,,0.00,0,Wunderground v.1.15,2013-07-19 07:56:00,
2013-07-19 04:02:00,77.2,75.3,30.05,SSW,208,2.0,2.0,94,0.00,,,0.00,0,Wunderground v.1.15,2013-07-19 08:02:00,
2013-07-19 04:08:00,77.0,75.1,30.05,SSW,210,2.0,3.0,94,0.00,,,0.00,0,Wunderground v.1.15,2013-07-19 08:08:00,
2013-07-19 04:14:00,77.0,75.1,30.05,SSW,210,1.0,2.0,94,0.00,,,0.00,0,Wunderground v.1.15,2013-07-19 08:14:00,
2013-07-19 04:20:00,76.8,74.9,30.05,SSW,210,1.0,1.0,94,0.00,,,0.00,0,Wunderground v.1.15,2013-07-19 08:20:00,
2013-07-19 04:26:00,76.8,74.9,30.05,WSW,248,1.0,2.0,94,0.00,,,0.00,0,Wunderground v.1.15,2013-07-19 08:26:00,
2013-07-19 04:32:00,76.7,74.8,30.05,WSW,248,1.0,2.0,94,0.00,,,0.00,0,Wunderground v.1.15,2013-07-19 08:32:00,
2013-07-19 04:38:00,76.7,74.8,30.05,WSW,248,1.0,2.0,94,0.00,,,0.00,0,Wunderground v.1.15,2013-07-19 08:38:00,
2013-07-19 04:44:00,76.5,74.6,30.05,WSW,248,1.0,2.0,94,0.00,,,0.00,0,Wunderground v.1.15,2013-07-19 08:44:00,
2013-07-19 04:51:00,76.5,75.0,30.05,WSW,248,1.0,2.0,95,0.00,,,0.00,0,Wunderground v.1.15,2013-07-19 08:51:00,
2013-07-19 04:56:00,76.3,74.8,30.05,WSW,248,1.0,2.0,95,0.00,,,0.00,0,Wunderground v.1.15,2013-07-19 08:56:00,
2013-07-19 05:02:00,76.3,74.8,30.05,WSW,248,0.0,1.0,95,0.00,,,0.00,0,Wunderground v.1.15,2013-07-19 09:02:00,
2013-07-19 05:08:00,76.3,74.8,30.05,SW,215,1.0,2.0,95,0.00,,,0.00,0,Wunderground v.1.15,2013-07-19 09:08:00,
2013-07-19 05:14:00,76.1,74.6,30.05,SW,230,2.0,4.0,95,0.00,,,0.00,0,Wunderground v.1.15,2013-07-19 09:14:00,
2013-07-19 05:20:00,76.1,74.6,30.05,SW,230,1.0,1.0,95,0.00,,,0.00,0,Wunderground v.1.15,2013-07-19 09:20:00,
2013-07-19 05:26:00,76.1,74.6,30.05,SW,230,1.0,2.0,95,0.00,,,0.00,0,Wunderground v.1.15,2013-07-19 09:26:00,
2013-07-19 05:32:00,76.0,74.5,30.06,SW,230,1.0,1.0,95,0.00,,,0.00,0,Wunderground v.1.15,2013-07-19 09:32:00,
2013-07-19 05:38:00,76.0,74.5,30.06,SW,230,1.0,3.0,95,0.00,,,0.00,0,Wunderground v.1.15,2013-07-19 09:38:00,
2013-07-19 05:44:00,76.0,74.8,30.06,SW,230,1.0,1.0,96,0.00,,,0.00,0,Wunderground v.1.15,2013-07-19 09:44:00,
2013-07-19 05:50:00,76.0,74.8,30.06,SW,230,1.0,1.0,96,0.00,,,0.00,0,Wunderground v.1.15,2013-07-19 09:50:00,
2013-07-19 05:56:00,76.1,74.9,30.06,SW,230,1.0,1.0,96,0.00,,,0.00,0,Wunderground v.1.15,2013-07-19 09:56:00,
2013-07-19 06:02:00,76.1,74.9,30.07,SW,230,1.0,2.0,96,0.00,,,0.00,0,Wunderground v.1.15,2013-07-19 10:02:00,
2013-07-19 06:08:00,76.0,74.8,30.07,SW,230,1.0,5.0,96,0.00,,,0.00,0,Wunderground v.1.15,2013-07-19 10:08:00,
2013-07-19 06:14:00,76.0,74.8,30.07,SW,230,1.0,1.0,96,0.00,,,0.00,5,Wunderground v.1.15,2013-07-19 10:14:00,
2013-07-19 06:20:00,76.0,74.8,30.07,West,275,1.0,2.0,96,0.00,,,0.00,7,Wunderground v.1.15,2013-07-19 10:20:00,
2013-07-19 06:26:00,75.8,74.6,30.07,West,265,0.0,1.0,96,0.00,,,0.00,9,Wunderground v.1.15,2013-07-19 10:26:00,
2013-07-19 06:32:00,75.8,74.6,30.07,WSW,257,1.0,1.0,96,0.00,,,0.00,14,Wunderground v.1.15,2013-07-19 10:32:00,
2013-07-19 06:38:00,75.8,74.6,30.07,SW,232,1.0,2.0,96,0.00,,,0.00,18,Wunderground v.1.15,2013-07-19 10:38:00,
2013-07-19 06:44:00,76.0,74.8,30.07,SW,232,1.0,2.0,96,0.00,,,0.00,21,Wunderground v.1.15,2013-07-19 10:44:00,
2013-07-19 06:50:00,76.0,75.1,30.07,SW,215,1.0,2.0,97,0.00,,,0.00,28,Wunderground v.1.15,2013-07-19 10:50:00,
2013-07-19 06:56:00,76.0,75.1,30.07,SW,232,1.0,2.0,97,0.00,,,0.00,35,Wunderground v.1.15,2013-07-19 10:56:00,
2013-07-19 07:02:00,76.0,75.1,30.07,SW,232,1.0,1.0,97,0.00,,,0.00,39,Wunderground v.1.15,2013-07-19 11:02:00,
2013-07-19 07:08:00,76.1,75.2,30.07,SW,232,1.0,2.0,97,0.00,,,0.00,42,Wunderground v.1.15,2013-07-19 11:08:00,
2013-07-19 07:14:00,76.3,75.4,30.07,South,182,1.0,2.0,97,0.00,,,0.00,51,Wunderground v.1.15,2013-07-19 11:14:00,
2013-07-19 07:20:00,76.5,75.6,30.07,WSW,250,2.0,2.0,97,0.00,,,0.00,58,Wunderground v.1.15,2013-07-19 11:20:00,
2013-07-19 07:26:00,76.5,75.6,30.07,WSW,250,2.0,5.0,97,0.00,,,0.00,63,Wunderground v.1.15,2013-07-19 11:26:00,
2013-07-19 07:32:00,76.7,75.8,30.07,WSW,250,2.0,2.0,97,0.00,,,0.00,65,Wunderground v.1.15,2013-07-19 11:32:00,
2013-07-19 07:38:00,76.8,75.6,30.07,SW,220,2.0,5.0,96,0.00,,,0.00,70,Wunderground v.1.15,2013-07-19 11:38:00,
2013-07-19 07:44:00,77.0,75.8,30.07,SW,215,2.0,4.0,96,0.00,,,0.00,76,Wunderground v.1.15,2013-07-19 11:44:00,
2013-07-19 07:50:00,77.4,76.2,30.08,SW,222,3.0,3.0,96,0.00,,,0.00,83,Wunderground v.1.15,2013-07-19 11:50:00,
2013-07-19 07:56:00,77.6,76.1,30.08,WSW,243,2.0,3.0,95,0.00,,,0.00,88,Wunderground v.1.15,2013-07-19 11:56:00,
2013-07-19 08:02:00,77.7,76.2,30.08,SW,217,2.0,5.0,95,0.00,,,0.00,109,Wunderground v.1.15,2013-07-19 12:02:00,
2013-07-19 08:08:00,78.1,76.2,30.08,SW,226,2.0,5.0,94,0.00,,,0.00,106,Wunderground v.1.15,2013-07-19 12:08:00,
2013-07-19 08:14:00,78.5,76.3,30.08,SSW,212,2.0,5.0,93,0.00,,,0.00,104,Wunderground v.1.15,2013-07-19 12:14:00,
2013-07-19 08:20:00,78.8,76.3,30.08,WSW,247,3.0,3.0,92,0.00,,,0.00,181,Wunderground v.1.15,2013-07-19 12:20:00,
2013-07-19 08:26:00,79.2,76.3,30.08,WNW,284,4.0,6.0,91,0.00,,,0.00,294,Wunderground v.1.15,2013-07-19 12:26:00,
2013-07-19 08:32:00,79.8,76.3,30.08,SW,230,5.0,5.0,89,0.00,,,0.00,296,Wunderground v.1.15,2013-07-19 12:32:00,
2013-07-19 08:38:00,80.1,75.9,30.08,West,267,4.0,5.0,87,0.00,,,0.00,327,Wunderground v.1.15,2013-07-19 12:38:00,
2013-07-19 08:44:00,80.9,76.3,30.08,SW,230,4.0,5.0,86,0.00,,,0.00,348,Wunderground v.1.15,2013-07-19 12:44:00,
2013-07-19 08:50:00,81.6,76.3,30.08,WSW,251,4.0,4.0,84,0.00,,,0.00,368,Wunderground v.1.15,2013-07-19 12:50:00,
2013-07-19 08:56:00,82.4,76.7,30.08,WSW,243,4.0,7.0,83,0.00,,,0.00,389,Wunderground v.1.15,2013-07-19 12:56:00,
2013-07-19 09:02:00,82.6,76.5,30.08,SW,232,4.0,7.0,82,0.00,,,0.00,408,Wunderground v.1.15,2013-07-19 13:02:00,
2013-07-19 09:08:00,83.4,77.0,30.08,NNW,330,3.0,7.0,81,0.00,,,0.00,428,Wunderground v.1.15,2013-07-19 13:08:00,
2013-07-19 09:14:00,83.8,77.0,30.08,WSW,251,3.0,6.0,80,0.00,,,0.00,447,Wunderground v.1.15,2013-07-19 13:14:00,
2013-07-19 09:20:00,84.0,77.2,30.08,WSW,256,4.0,5.0,80,0.00,,,0.00,465,Wunderground v.1.15,2013-07-19 13:20:00,
2013-07-19 09:26:00,84.3,77.1,30.08,WSW,241,4.0,5.0,79,0.00,,,0.00,482,Wunderground v.1.15,2013-07-19 13:26:00,
2013-07-19 09:30:00,84.7,76.7,30.08,SW,233,4.0,4.0,77,0.00,,,0.00,491,Wunderground v.1.15,2013-07-19 13:30:00,
2013-07-19 09:36:00,85.3,77.3,30.08,SW,232,3.0,4.0,77,0.00,,,0.00,512,Wunderground v.1.15,2013-07-19 13:36:00,
2013-07-19 09:42:00,85.3,77.7,30.08,SW,226,3.0,5.0,78,0.00,,,0.00,521,Wunderground v.1.15,2013-07-19 13:42:00,
2013-07-19 09:48:00,85.7,77.7,30.08,WSW,241,4.0,5.0,77,0.00,,,0.00,552,Wunderground v.1.15,2013-07-19 13:48:00,
2013-07-19 09:54:00,85.5,76.7,30.08,SW,226,5.0,8.0,75,0.00,,,0.00,567,Wunderground v.1.15,2013-07-19 13:54:00,
2013-07-19 10:00:00,85.1,76.7,30.08,SW,222,4.0,4.0,76,0.00,,,0.00,584,Wunderground v.1.15,2013-07-19 14:00:00,
2013-07-19 10:06:00,85.7,76.9,30.08,SSW,212,4.0,5.0,75,0.00,,,0.00,605,Wunderground v.1.15,2013-07-19 14:06:00,
2013-07-19 10:12:00,86.3,77.8,30.08,WSW,256,3.0,4.0,76,0.00,,,0.00,637,Wunderground v.1.15,2013-07-19 14:12:00,
2013-07-19 10:18:00,86.3,78.2,30.08,WNW,284,3.0,10.0,77,0.00,,,0.00,632,Wunderground v.1.15,2013-07-19 14:18:00,
2013-07-19 10:24:00,87.0,77.7,30.08,SW,234,5.0,7.0,74,0.00,,,0.00,653,Wunderground v.1.15,2013-07-19 14:24:00,
2013-07-19 10:30:00,87.4,77.7,30.08,WSW,251,5.0,5.0,73,0.00,,,0.00,670,Wunderground v.1.15,2013-07-19 14:30:00,
2013-07-19 10:36:00,87.6,77.5,30.08,South,186,5.0,8.0,72,0.00,,,0.00,688,Wunderground v.1.15,2013-07-19 14:36:00,
2013-07-19 10:42:00,87.8,77.6,30.08,SW,233,6.0,6.0,72,0.00,,,0.00,691,Wunderground v.1.15,2013-07-19 14:42:00,
2013-07-19 10:48:00,87.8,77.6,30.08,WSW,240,5.0,7.0,72,0.00,,,0.00,716,Wunderground v.1.15,2013-07-19 14:48:00,
2013-07-19 10:54:00,88.4,77.8,30.08,West,265,5.0,12.0,71,0.00,,,0.00,771,Wunderground v.1.15,2013-07-19 14:54:00,
2013-07-19 11:00:00,88.2,78.0,30.08,WSW,257,5.0,5.0,72,0.00,,,0.00,795,Wunderground v.1.15,2013-07-19 15:00:00,
2013-07-19 11:06:00,88.0,78.3,30.08,SW,217,6.0,10.0,73,0.00,,,0.00,815,Wunderground v.1.15,2013-07-19 15:06:00,
2013-07-19 11:12:00,88.6,77.6,30.08,WSW,248,6.0,8.0,70,0.00,,,0.00,853,Wunderground v.1.15,2013-07-19 15:12:00,
2013-07-19 11:18:00,88.8,77.3,30.08,SW,219,4.0,8.0,69,0.00,,,0.00,880,Wunderground v.1.15,2013-07-19 15:18:00,
2013-07-19 11:24:00,89.9,79.7,30.08,WSW,248,4.0,5.0,72,0.00,,,0.00,913,Wunderground v.1.15,2013-07-19 15:24:00,
2013-07-19 11:30:00,90.3,77.8,30.07,SSW,212,4.0,4.0,67,0.00,,,0.00,880,Wunderground v.1.15,2013-07-19 15:30:00,
2013-07-19 11:36:00,90.5,77.6,30.07,WSW,239,4.0,5.0,66,0.00,,,0.00,927,Wunderground v.1.15,2013-07-19 15:36:00,
2013-07-19 11:42:00,91.0,78.5,30.07,SW,236,5.0,9.0,67,0.00,,,0.00,936,Wunderground v.1.15,2013-07-19 15:42:00,
2013-07-19 11:48:00,90.1,78.6,30.07,WSW,241,6.0,9.0,69,0.00,,,0.00,936,Wunderground v.1.15,2013-07-19 15:48:00,
2013-07-19 11:54:00,90.1,79.0,30.07,SW,222,6.0,7.0,70,0.00,,,0.00,1001,Wunderground v.1.15,2013-07-19 15:54:00,
2013-07-19 12:00:00,90.7,77.8,30.07,SW,223,6.0,6.0,66,0.00,,,0.00,1001,Wunderground v.1.15,2013-07-19 16:00:00,
2013-07-19 12:06:00,90.3,76.5,30.07,WSW,243,7.0,10.0,64,0.00,,,0.00,255,Wunderground v.1.15,2013-07-19 16:06:00,
2013-07-19 12:12:00,90.7,77.8,30.07,SW,234,7.0,13.0,66,0.00,,,0.00,903,Wunderground v.1.15,2013-07-19 16:12:00,
2013-07-19 12:18:00,91.0,77.6,30.07,SW,223,6.0,13.0,65,0.00,,,0.00,908,Wunderground v.1.15,2013-07-19 16:18:00,
2013-07-19 12:24:00,91.2,75.4,30.07,SW,233,5.0,11.0,60,0.00,,,0.00,950,Wunderground v.1.15,2013-07-19 16:24:00,
2013-07-19 12:30:00,91.0,76.7,30.07,SSE,160,6.0,6.0,63,0.00,,,0.00,977,Wunderground v.1.15,2013-07-19 16:30:00,
2013-07-19 12:36:00,91.4,76.5,30.07,WSW,244,5.0,7.0,62,0.00,,,0.00,957,Wunderground v.1.15,2013-07-19 16:36:00,
2013-07-19 12:42:00,91.4,78.4,30.07,WSW,239,5.0,5.0,66,0.00,,,0.00,957,Wunderground v.1.15,2013-07-19 16:42:00,
2013-07-19 12:48:00,91.2,74.9,30.06,WSW,239,6.0,7.0,59,0.00,,,0.00,966,Wunderground v.1.15,2013-07-19 16:48:00,
2013-07-19 12:54:00,91.4,76.1,30.06,SW,215,6.0,12.0,61,0.00,,,0.00,999,Wunderground v.1.15,2013-07-19 16:54:00,
2013-07-19 13:00:00,91.8,75.4,30.06,WSW,248,6.0,7.0,59,0.00,,,0.00,354,Wunderground v.1.15,2013-07-19 17:00:00,
2013-07-19 13:06:00,91.4,76.5,30.06,West,263,5.0,7.0,62,0.00,,,0.00,354,Wunderground v.1.15,2013-07-19 17:06:00,
2013-07-19 13:12:00,91.6,77.7,30.06,SW,232,5.0,5.0,64,0.00,,,0.00,947,Wunderground v.1.15,2013-07-19 17:12:00,
2013-07-19 13:18:00,92.1,74.7,30.05,South,178,6.0,6.0,57,0.00,,,0.00,962,Wunderground v.1.15,2013-07-19 17:18:00,
2013-07-19 13:24:00,92.7,76.3,30.05,SW,230,7.0,7.0,59,0.00,,,0.00,950,Wunderground v.1.15,2013-07-19 17:24:00,
2013-07-19 13:31:00,92.7,76.8,30.05,WSW,243,6.0,7.0,60,0.00,,,0.00,934,Wunderground v.1.15,2013-07-19 17:31:00,
2013-07-19 13:36:00,92.7,76.3,30.05,SSW,208,6.0,10.0,59,0.00,,,0.00,971,Wunderground v.1.15,2013-07-19 17:36:00,
2013-07-19 13:42:00,92.9,75.4,30.05,WSW,248,5.0,7.0,57,0.00,,,0.00,910,Wunderground v.1.15,2013-07-19 17:42:00,
2013-07-19 13:48:00,93.4,75.9,30.04,WSW,251,5.0,7.0,57,0.00,,,0.00,910,Wunderground v.1.15,2013-07-19 17:48:00,
2013-07-19 13:54:00,93.4,76.4,30.04,WNW,295,5.0,14.0,58,0.00,,,0.00,920,Wunderground v.1.15,2013-07-19 17:54:00,
2013-07-19 14:00:00,93.4,75.9,30.03,SSW,196,6.0,6.0,57,0.00,,,0.00,927,Wunderground v.1.15,2013-07-19 18:00:00,
2013-07-19 14:06:00,93.4,75.9,30.03,SW,215,6.0,12.0,57,0.00,,,0.00,957,Wunderground v.1.15,2013-07-19 18:06:00,
2013-07-19 14:12:00,92.7,75.2,30.03,SW,229,6.0,6.0,57,0.00,,,0.00,908,Wunderground v.1.15,2013-07-19 18:12:00,
2013-07-19 14:18:00,93.2,75.2,30.03,WSW,250,6.0,7.0,56,0.00,,,0.00,971,Wunderground v.1.15,2013-07-19 18:18:00,
2013-07-19 14:24:00,93.8,75.7,30.03,West,261,7.0,7.0,56,0.00,,,0.00,970,Wunderground v.1.15,2013-07-19 18:24:00,
2013-07-19 14:30:00,94.0,77.0,30.02,SW,223,6.0,6.0,58,0.00,,,0.00,913,Wunderground v.1.15,2013-07-19 18:30:00,
2013-07-19 14:36:00,94.0,76.4,30.02,SW,236,6.0,6.0,57,0.00,,,0.00,860,Wunderground v.1.15,2013-07-19 18:36:00,
2013-07-19 14:42:00,93.6,76.6,30.02,NW,306,6.0,6.0,58,0.00,,,0.00,897,Wunderground v.1.15,2013-07-19 18:42:00,
2013-07-19 14:48:00,93.4,75.4,30.01,South,178,6.0,6.0,56,0.00,,,0.00,903,Wunderground v.1.15,2013-07-19 18:48:00,
2013-07-19 14:54:00,93.6,76.1,30.01,WSW,246,6.0,7.0,57,0.00,,,0.00,887,Wunderground v.1.15,2013-07-19 18:54:00,
2013-07-19 15:00:00,93.4,77.4,30.01,SW,233,7.0,10.0,60,0.00,,,0.00,892,Wunderground v.1.15,2013-07-19 19:00:00,
2013-07-19 15:06:00,93.4,76.4,30.01,SW,226,7.0,10.0,58,0.00,,,0.00,862,Wunderground v.1.15,2013-07-19 19:06:00,
2013-07-19 15:12:00,93.4,75.4,30.01,WSW,240,6.0,7.0,56,0.00,,,0.00,190,Wunderground v.1.15,2013-07-19 19:12:00,
2013-07-19 15:18:00,91.8,75.4,30.01,SSW,210,6.0,8.0,59,0.00,,,0.00,229,Wunderground v.1.15,2013-07-19 19:18:00,
2013-07-19 15:24:00,92.1,74.7,30.01,WSW,237,6.0,13.0,57,0.00,,,0.00,197,Wunderground v.1.15,2013-07-19 19:24:00,
2013-07-19 15:30:00,91.2,75.4,30.00,SSW,209,5.0,5.0,60,0.00,,,0.00,187,Wunderground v.1.15,2013-07-19 19:30:00,
2013-07-19 15:36:00,91.8,74.9,30.00,West,263,5.0,6.0,58,0.00,,,0.00,816,Wunderground v.1.15,2013-07-19 19:36:00,
2013-07-19 15:42:00,91.4,73.5,30.00,WSW,247,5.0,12.0,56,0.00,,,0.00,201,Wunderground v.1.15,2013-07-19 19:42:00,
2013-07-19 15:48:00,91.6,75.2,30.00,SW,233,7.0,13.0,59,0.00,,,0.00,227,Wunderground v.1.15,2013-07-19 19:48:00,
2013-07-19 15:54:00,91.4,75.1,30.00,SSW,209,7.0,9.0,59,0.00,,,0.00,776,Wunderground v.1.15,2013-07-19 19:54:00,
2013-07-19 16:00:00,92.3,74.3,30.00,South,186,7.0,7.0,56,0.00,,,0.00,728,Wunderground v.1.15,2013-07-19 20:00:00,
2013-07-19 16:06:00,92.3,75.4,30.00,WSW,241,7.0,11.0,58,0.00,,,0.00,723,Wunderground v.1.15,2013-07-19 20:06:00,
2013-07-19 16:12:00,93.4,74.8,30.00,WSW,256,6.0,8.0,55,0.00,,,0.00,693,Wunderground v.1.15,2013-07-19 20:12:00,
2013-07-19 16:18:00,92.7,74.7,29.99,SSW,209,5.0,8.0,56,0.00,,,0.00,155,Wunderground v.1.15,2013-07-19 20:18:00,
2013-07-19 16:24:00,92.5,76.1,29.99,WSW,247,5.0,5.0,59,0.00,,,0.00,711,Wunderground v.1.15,2013-07-19 20:24:00,
2013-07-19 16:30:00,93.2,75.2,29.99,SSW,206,4.0,4.0,56,0.00,,,0.00,662,Wunderground v.1.15,2013-07-19 20:30:00,
2013-07-19 16:36:00,92.9,74.4,29.99,SW,216,6.0,10.0,55,0.00,,,0.00,653,Wunderground v.1.15,2013-07-19 20:36:00,
2013-07-19 16:42:00,92.5,74.5,29.99,SW,223,7.0,7.0,56,0.00,,,0.00,197,Wunderground v.1.15,2013-07-19 20:42:00,
2013-07-19 16:48:00,92.3,74.3,29.98,SSE,162,6.0,10.0,56,0.00,,,0.00,581,Wunderground v.1.15,2013-07-19 20:48:00,
2013-07-19 16:54:00,92.1,75.2,29.98,SW,236,5.0,5.0,58,0.00,,,0.00,139,Wunderground v.1.15,2013-07-19 20:54:00,
2013-07-19 17:00:00,92.5,75.0,29.99,SW,232,6.0,7.0,57,0.00,,,0.00,575,Wunderground v.1.15,2013-07-19 21:00:00,
2013-07-19 17:06:00,92.5,74.0,29.99,WSW,244,6.0,8.0,55,0.00,,,0.00,556,Wunderground v.1.15,2013-07-19 21:06:00,
2013-07-19 17:12:00,92.9,75.4,29.99,West,274,5.0,7.0,57,0.00,,,0.00,540,Wunderground v.1.15,2013-07-19 21:12:00,
2013-07-19 17:18:00,92.9,74.4,29.98,SW,223,6.0,7.0,55,0.00,,,0.00,503,Wunderground v.1.15,2013-07-19 21:18:00,
2013-07-19 17:24:00,92.7,75.8,29.98,WSW,250,6.0,10.0,58,0.00,,,0.00,472,Wunderground v.1.15,2013-07-19 21:24:00,
2013-07-19 17:30:00,92.7,75.2,29.98,WSW,244,6.0,6.0,57,0.00,,,0.00,447,Wunderground v.1.15,2013-07-19 21:30:00,
2013-07-19 17:36:00,92.7,74.2,29.98,WSW,243,7.0,12.0,55,0.00,,,0.00,445,Wunderground v.1.15,2013-07-19 21:36:00,
2013-07-19 17:42:00,92.3,73.8,29.98,WSW,253,7.0,8.0,55,0.00,,,0.00,428,Wunderground v.1.15,2013-07-19 21:42:00,
2013-07-19 17:48:00,92.5,74.5,29.98,SW,236,6.0,8.0,56,0.00,,,0.00,413,Wunderground v.1.15,2013-07-19 21:48:00,
2013-07-19 17:54:00,92.7,73.6,29.98,SSW,193,5.0,10.0,54,0.00,,,0.00,387,Wunderground v.1.15,2013-07-19 21:54:00,
2013-07-19 18:00:00,92.5,74.5,29.97,SSW,212,7.0,7.0,56,0.00,,,0.00,359,Wunderground v.1.15,2013-07-19 22:00:00,
2013-07-19 18:06:00,92.7,74.2,29.97,WSW,258,5.0,7.0,55,0.00,,,0.00,338,Wunderground v.1.15,2013-07-19 22:06:00,
2013-07-19 18:12:00,92.9,73.8,29.97,SW,219,5.0,5.0,54,0.00,,,0.00,315,Wunderground v.1.15,2013-07-19 22:12:00,
2013-07-19 18:18:00,92.7,73.1,29.97,WSW,246,5.0,7.0,53,0.00,,,0.00,303,Wunderground v.1.15,2013-07-19 22:18:00,
2013-07-19 18:24:00,92.1,72.5,29.97,SW,217,6.0,6.0,53,0.00,,,0.00,81,Wunderground v.1.15,2013-07-19 22:24:00,
2013-07-19 18:30:00,91.4,73.0,29.97,WSW,246,5.0,6.0,55,0.00,,,0.00,259,Wunderground v.1.15,2013-07-19 22:30:00,
2013-07-19 18:36:00,91.2,73.3,29.97,WSW,240,5.0,7.0,56,0.00,,,0.00,208,Wunderground v.1.15,2013-07-19 22:36:00,
2013-07-19 18:42:00,91.2,73.3,29.97,WNW,284,5.0,12.0,56,0.00,,,0.00,230,Wunderground v.1.15,2013-07-19 22:42:00,
2013-07-19 18:48:00,91.2,73.3,29.97,South,189,5.0,12.0,56,0.00,,,0.00,211,Wunderground v.1.15,2013-07-19 22:48:00,
2013-07-19 18:54:00,91.0,72.6,29.97,SW,219,5.0,10.0,55,0.00,,,0.00,201,Wunderground v.1.15,2013-07-19 22:54:00,
2013-07-19 19:00:00,90.7,71.8,29.97,WSW,241,7.0,7.0,54,0.00,,,0.00,179,Wunderground v.1.15,2013-07-19 23:00:00,
2013-07-19 19:06:00,90.7,72.3,29.97,WSW,244,6.0,12.0,55,0.00,,,0.00,165,Wunderground v.1.15,2013-07-19 23:06:00,
2013-07-19 19:12:00,90.5,71.6,29.97,West,277,5.0,6.0,54,0.00,,,0.00,148,Wunderground v.1.15,2013-07-19 23:12:00,
2013-07-19 19:18:00,90.1,71.8,29.98,WSW,253,5.0,6.0,55,0.00,,,0.00,130,Wunderground v.1.15,2013-07-19 23:18:00,
2013-07-19 19:24:00,89.7,72.4,29.98,SW,226,5.0,8.0,57,0.00,,,0.00,44,Wunderground v.1.15,2013-07-19 23:24:00,
2013-07-19 19:31:00,89.0,71.8,29.98,WSW,256,4.0,4.0,57,0.00,,,0.00,40,Wunderground v.1.15,2013-07-19 23:31:00,
2013-07-19 19:36:00,88.6,71.4,29.98,SSW,212,3.0,5.0,57,0.00,,,0.00,37,Wunderground v.1.15,2013-07-19 23:36:00,
2013-07-19 19:42:00,88.0,70.9,29.98,SSW,209,4.0,4.0,57,0.00,,,0.00,35,Wunderground v.1.15,2013-07-19 23:42:00,
2013-07-19 19:48:00,87.6,70.5,29.98,SW,230,3.0,6.0,57,0.00,,,0.00,28,Wunderground v.1.15,2013-07-19 23:48:00,
2013-07-19 19:54:00,87.2,70.6,29.98,West,271,3.0,7.0,58,0.00,,,0.00,23,Wunderground v.1.15,2013-07-19 23:54:00,
2013-07-19 20:00:00,87.0,70.4,29.98,SW,232,4.0,4.0,58,0.00,,,0.00,19,Wunderground v.1.15,2013-07-20 00:00:00,
2013-07-19 20:06:00,86.5,70.5,29.98,South,189,3.0,4.0,59,0.00,,,0.00,14,Wunderground v.1.15,2013-07-20 00:06:00,
2013-07-19 20:12:00,86.1,70.6,29.98,SSW,202,3.0,5.0,60,0.00,,,0.00,7,Wunderground v.1.15,2013-07-20 00:12:00,
2013-07-19 20:18:00,85.7,70.2,29.98,SW,226,3.0,5.0,60,0.00,,,0.00,7,Wunderground v.1.15,2013-07-20 00:18:00,
2013-07-19 20:24:00,85.3,70.3,29.98,SSW,199,3.0,5.0,61,0.00,,,0.00,5,Wunderground v.1.15,2013-07-20 00:24:00,
2013-07-19 20:30:00,85.1,70.6,29.98,WSW,237,2.0,2.0,62,0.00,,,0.00,0,Wunderground v.1.15,2013-07-20 00:30:00,
2013-07-19 20:36:00,84.7,70.7,29.98,WSW,237,1.0,2.0,63,0.00,,,0.00,0,Wunderground v.1.15,2013-07-20 00:36:00,
2013-07-19 20:42:00,84.5,70.5,29.98,SW,236,1.0,2.0,63,0.00,,,0.00,0,Wunderground v.1.15,2013-07-20 00:42:00,
2013-07-19 20:48:00,84.1,71.1,29.98,SW,236,1.0,2.0,65,0.00,,,0.00,0,Wunderground v.1.15,2013-07-20 00:48:00,
2013-07-19 20:54:00,83.8,70.8,29.98,SW,236,0.0,2.0,65,0.00,,,0.00,0,Wunderground v.1.15,2013-07-20 00:54:00,
2013-07-19 21:00:00,83.6,70.6,29.98,SW,236,0.0,0.0,65,0.00,,,0.00,0,Wunderground v.1.15,2013-07-20 01:00:00,
2013-07-19 21:06:00,83.2,71.1,29.98,SW,236,0.0,1.0,67,0.00,,,0.00,0,Wunderground v.1.15,2013-07-20 01:06:00,
2013-07-19 21:12:00,83.0,70.9,29.98,SW,236,1.0,2.0,67,0.00,,,0.00,0,Wunderground v.1.15,2013-07-20 01:12:00,
2013-07-19 21:18:00,82.8,71.2,29.99,SW,236,2.0,3.0,68,0.00,,,0.00,0,Wunderground v.1.15,2013-07-20 01:18:00,
2013-07-19 21:24:00,82.6,71.0,29.99,SW,220,2.0,5.0,68,0.00,,,0.00,0,Wunderground v.1.15,2013-07-20 01:24:00,
2013-07-19 21:30:00,82.6,71.8,29.99,South,191,2.0,2.0,70,0.00,,,0.00,0,Wunderground v.1.15,2013-07-20 01:30:00,
2013-07-19 21:36:00,82.6,72.2,29.99,SW,224,2.0,4.0,71,0.00,,,0.00,0,Wunderground v.1.15,2013-07-20 01:36:00,
2013-07-19 21:42:00,82.4,72.5,29.99,SSW,205,2.0,5.0,72,0.00,,,0.00,0,Wunderground v.1.15,2013-07-20 01:42:00,
2013-07-19 21:48:00,82.4,72.9,30.00,SSW,205,3.0,5.0,73,0.00,,,0.00,0,Wunderground v.1.15,2013-07-20 01:48:00,
2013-07-19 21:54:00,82.2,73.1,30.00,WSW,243,3.0,3.0,74,0.00,,,0.00,0,Wunderground v.1.15,2013-07-20 01:54:00,
2013-07-19 22:00:00,82.0,73.3,30.01,SW,224,2.0,2.0,75,0.00,,,0.00,0,Wunderground v.1.15,2013-07-20 02:00:00,
2013-07-19 22:06:00,82.0,73.3,30.01,SSW,200,2.0,4.0,75,0.00,,,0.00,0,Wunderground v.1.15,2013-07-20 02:06:00,
2013-07-19 22:12:00,81.8,73.5,30.01,SSW,212,2.0,10.0,76,0.00,,,0.00,0,Wunderground v.1.15,2013-07-20 02:12:00,
2013-07-19 22:18:00,81.8,73.9,30.02,SW,224,3.0,10.0,77,0.00,,,0.00,0,Wunderground v.1.15,2013-07-20 02:18:00,
2013-07-19 22:24:00,81.6,73.7,30.02,SW,216,3.0,3.0,77,0.00,,,0.00,0,Wunderground v.1.15,2013-07-20 02:24:00,
2013-07-19 22:30:00,81.6,73.7,30.02,SSW,208,3.0,3.0,77,0.00,,,0.00,0,Wunderground v.1.15,2013-07-20 02:30:00,
2013-07-19 22:36:00,81.4,73.5,30.02,SW,232,3.0,3.0,77,0.00,,,0.00,0,Wunderground v.1.15,2013-07-20 02:36:00,
2013-07-19 22:42:00,81.4,73.5,30.02,SW,220,3.0,4.0,77,0.00,,,0.00,0,Wunderground v.1.15,2013-07-20 02:42:00,
2013-07-19 22:48:00,81.2,73.7,30.02,SW,217,3.0,4.0,78,0.00,,,0.00,0,Wunderground v.1.15,2013-07-20 02:48:00,
2013-07-19 22:54:00,81.1,73.6,30.02,SSW,213,1.0,5.0,78,0.00,,,0.00,0,Wunderground v.1.15,2013-07-20 02:54:00,
2013-07-19 23:00:00,81.1,74.0,30.03,SSW,206,2.0,2.0,79,0.00,,,0.00,0,Wunderground v.1.15,2013-07-20 03:00:00,
2013-07-19 23:06:00,80.9,73.8,30.03,SW,223,2.0,6.0,79,0.00,,,0.00,0,Wunderground v.1.15,2013-07-20 03:06:00,
2013-07-19 23:12:00,80.9,73.8,30.03,SW,230,2.0,2.0,79,0.00,,,0.00,0,Wunderground v.1.15,2013-07-20 03:12:00,
2013-07-19 23:18:00,80.7,74.0,30.03,SW,215,3.0,3.0,80,0.00,,,0.00,0,Wunderground v.1.15,2013-07-20 03:18:00,
2013-07-19 23:24:00,80.7,74.0,30.03,SW,224,2.0,2.0,80,0.00,,,0.00,0,Wunderground v.1.15,2013-07-20 03:24:00,
2013-07-19 23:30:00,80.5,74.1,30.03,WSW,240,1.0,2.0,81,0.00,,,0.00,0,Wunderground v.1.15,2013-07-20 03:30:00,
2013-07-19 23:36:00,80.3,73.9,30.03,SW,229,2.0,2.0,81,0.00,,,0.00,0,Wunderground v.1.15,2013-07-20 03:36:00,
2013-07-19 23:42:00,80.1,74.1,30.03,SW,233,1.0,2.0,82,0.00,,,0.00,0,Wunderground v.1.15,2013-07-20 03:42:00,
2013-07-19 23:48:00,79.9,73.9,30.03,SW,236,2.0,5.0,82,0.00,,,0.00,0,Wunderground v.1.15,2013-07-20 03:48:00,
2013-07-19 23:54:00,79.9,74.3,30.03,SSW,205,3.0,5.0,83,0.00,,,0.00,0,Wunderground v.1.15,2013-07-20 03:54:00,